This is the latest recevied weather packets stored in our database for station/object N8DMH-13. If no packets are shown the sender has not sent any weather packets the latest 10 day(s).
| Time | Temp. | Humidity | Pressure | Rain* | Wind** | Luminosity | Snow |
|---|---|---|---|---|---|---|---|
| 1787516157 | 18.89° C | 61% | 1014 hPa | 0 mm | - | - | - |
| 1787515526 | 18.33° C | 61% | 1014.1 hPa | 0 mm | - | - | - |
| 1787515226 | 18.33° C | 61% | 1014.1 hPa | 0 mm | - | - | - |
| 1787514927 | 18.33° C | 64% | 1014.1 hPa | 0 mm | - | - | - |
| 1787514626 | 18.33° C | 64% | 1014.1 hPa | 0 mm | - | - | - |
| 1787514296 | 18.33° C | 62% | 1014.1 hPa | 0 mm | - | - | - |
| 1787513966 | 18.33° C | 62% | 1014.1 hPa | 0 mm | - | - | - |
| 1787513635 | 18.33° C | 65% | 1014 hPa | 0 mm | - | - | - |
| 1787513335 | 18.33° C | 65% | 1014 hPa | 0 mm | - | - | - |
| 1787513036 | 18.33° C | 67% | 1014 hPa | 0 mm | - | - | - |
| 1787512707 | 17.78° C | 68% | 1014 hPa | 0 mm | - | - | - |
| 1787512405 | 17.78° C | 70% | 1014 hPa | 0 mm | - | - | - |
| 1787512076 | 17.78° C | 70% | 1014 hPa | 0 mm | - | - | - |
| 1787511775 | 17.78° C | 68% | 1014.2 hPa | 0 mm | - | - | - |
| 1787511445 | 18.33° C | 66% | 1014.1 hPa | 0 mm | - | - | - |
| 1787511144 | 18.33° C | 66% | 1014 hPa | 0 mm | - | - | - |
| 1787510818 | 18.89° C | 64% | 1013.8 hPa | 0 mm | - | - | - |
| 1787510514 | 18.89° C | 64% | 1013.8 hPa | 0 mm | - | - | - |
| 1787510185 | 19.44° C | 64% | 1013.7 hPa | 0 mm | - | - | - |
| 1787509855 | 19.44° C | 63% | 1013.6 hPa | 0 mm | - | - | - |
| 1787509554 | 19.44° C | 61% | 1013.6 hPa | 0 mm | - | - | - |
| 1787509224 | 19.44° C | 61% | 1013.6 hPa | 0 mm | - | - | - |
| 1787508924 | 19.44° C | 61% | 1013.7 hPa | 0 mm | - | - | - |
| 1787508624 | 19.44° C | 65% | 1013.3 hPa | 0 mm | - | - | - |
| 1787508294 | 19.44° C | 65% | 1013.4 hPa | 0 mm | - | - | - |
* Rain latest hour (hover to see other rain measurements)
** Current wind speed in m/s (hover to see current wind gust speed)